Wetterdaten: Dienstag, 30.06.2015
Datum Zeit Auen-Temp. Temp gefhlt Luftfeuchte Luftdruck Regen Wind Richtung Richtung Taupunkt Windben
30.06.2015 00:00 14,7 C 14,4 C 75 % 1025,3 hPa 0,0 mm 0,3 km/h (0 Bft) W 270 10,3 C 0,0 km/h (0 Bft)
30.06.2015 00:05 14,7 C 14,4 C 75 % 1025,3 hPa 0,0 mm 0,3 km/h (0 Bft) S 180 10,3 C 0,0 km/h (0 Bft)
30.06.2015 00:10 14,6 C 14,4 C 75 % 1025,3 hPa 0,0 mm 0,0 km/h (0 Bft) S-SW 202 10,2 C 0,0 km/h (0 Bft)
30.06.2015 00:15 14,6 C 14,4 C 75 % 1025,1 hPa 0,0 mm 0,0 km/h (0 Bft) S-SW 202 10,2 C 0,0 km/h (0 Bft)
30.06.2015 00:20 14,3 C 14,1 C 75 % 1025,1 hPa 0,0 mm 0,0 km/h (0 Bft) SW 225 9,9 C 0,0 km/h (0 Bft)
30.06.2015 00:25 14,2 C 14,0 C 75 % 1025,1 hPa 0,0 mm 0,0 km/h (0 Bft) W-SW 247 9,8 C 0,0 km/h (0 Bft)
30.06.2015 00:30 14,0 C 13,8 C 75 % 1025,1 hPa 0,0 mm 0,0 km/h (0 Bft) SW 225 9,6 C 0,0 km/h (0 Bft)
30.06.2015 00:35 14,0 C 13,8 C 75 % 1025,1 hPa 0,0 mm 0,0 km/h (0 Bft) W-SW 247 9,6 C 0,0 km/h (0 Bft)
30.06.2015 00:40 14,1 C 13,9 C 75 % 1025,1 hPa 0,0 mm 0,0 km/h (0 Bft) W-SW 247 9,7 C 0,0 km/h (0 Bft)
30.06.2015 00:45 14,3 C 14,1 C 76 % 1025,1 hPa 0,0 mm 0,0 km/h (0 Bft) W 270 10,1 C 3,4 km/h (1 Bft)
30.06.2015 00:50 14,7 C 14,4 C 76 % 1025,1 hPa 0,0 mm 1,0 km/h (0 Bft) S-SO 157 10,5 C 4,7 km/h (1 Bft)
30.06.2015 00:55 14,6 C 14,4 C 75 % 1024,9 hPa 0,0 mm 1,0 km/h (0 Bft) SW 225 10,2 C 0,0 km/h (0 Bft)
30.06.2015 01:00 14,2 C 14,1 C 75 % 1024,9 hPa 0,0 mm 0,3 km/h (0 Bft) W-SW 247 9,8 C 0,0 km/h (0 Bft)
30.06.2015 01:05 14,0 C 13,9 C 75 % 1024,9 hPa 0,0 mm 0,0 km/h (0 Bft) S 180 9,6 C 0,0 km/h (0 Bft)
30.06.2015 01:10 14,0 C 13,8 C 75 % 1024,9 hPa 0,0 mm 0,0 km/h (0 Bft) S-SW 202 9,6 C 0,0 km/h (0 Bft)
30.06.2015 01:15 14,0 C 13,7 C 75 % 1024,9 hPa 0,0 mm 0,0 km/h (0 Bft) W-SW 247 9,6 C 0,0 km/h (0 Bft)
30.06.2015 01:20 13,9 C 13,7 C 76 % 1024,9 hPa 0,0 mm 0,3 km/h (0 Bft) W-NW 292 9,7 C 3,1 km/h (1 Bft)
30.06.2015 01:25 13,8 C 13,6 C 76 % 1024,9 hPa 0,0 mm 0,3 km/h (0 Bft) SW 225 9,6 C 0,0 km/h (0 Bft)
30.06.2015 01:30 13,7 C 13,5 C 76 % 1024,9 hPa 0,0 mm 0,0 km/h (0 Bft) W-SW 247 9,5 C 0,0 km/h (0 Bft)
30.06.2015 01:35 13,5 C 13,3 C 76 % 1024,9 hPa 0,0 mm 0,0 km/h (0 Bft) S 180 9,4 C 0,0 km/h (0 Bft)
30.06.2015 01:40 13,5 C 13,3 C 76 % 1024,9 hPa 0,0 mm 0,0 km/h (0 Bft) S 180 9,4 C 0,0 km/h (0 Bft)
30.06.2015 01:45 13,7 C 13,4 C 76 % 1024,9 hPa 0,0 mm 0,0 km/h (0 Bft) S-SW 202 9,5 C 0,0 km/h (0 Bft)
30.06.2015 01:50 13,5 C 13,3 C 76 % 1024,9 hPa 0,0 mm 0,0 km/h (0 Bft) W-SW 247 9,4 C 0,0 km/h (0 Bft)
30.06.2015 01:55 13,5 C 13,3 C 76 % 1024,8 hPa 0,0 mm 0,0 km/h (0 Bft) W 270 9,4 C 0,0 km/h (0 Bft)
30.06.2015 02:00 13,3 C 13,1 C 76 % 1024,8 hPa 0,0 mm 0,0 km/h (0 Bft) W 270 9,2 C 0,0 km/h (0 Bft)
30.06.2015 02:05 13,2 C 13,0 C 76 % 1024,8 hPa 0,0 mm 0,0 km/h (0 Bft) W 270 9,1 C 0,0 km/h (0 Bft)
30.06.2015 02:10 13,1 C 12,9 C 76 % 1024,8 hPa 0,0 mm 0,0 km/h (0 Bft) W 270 9,0 C 0,0 km/h (0 Bft)
30.06.2015 02:15 13,1 C 12,8 C 76 % 1024,5 hPa 0,0 mm 0,0 km/h (0 Bft) W-SW 247 9,0 C 0,0 km/h (0 Bft)
30.06.2015 02:20 13,1 C 12,8 C 77 % 1024,5 hPa 0,0 mm 0,0 km/h (0 Bft) SW 225 9,2 C 0,0 km/h (0 Bft)
30.06.2015 02:25 13,1 C 12,9 C 77 % 1024,5 hPa 0,0 mm 0,0 km/h (0 Bft) W 270 9,2 C 0,0 km/h (0 Bft)
30.06.2015 02:30 13,0 C 12,8 C 77 % 1024,5 hPa 0,0 mm 0,0 km/h (0 Bft) W-SW 247 9,1 C 0,0 km/h (0 Bft)
30.06.2015 02:35 12,9 C 12,7 C 78 % 1024,6 hPa 0,0 mm 0,0 km/h (0 Bft) NW 315 9,2 C 0,0 km/h (0 Bft)
30.06.2015 02:40 12,6 C 12,5 C 78 % 1024,6 hPa 0,0 mm 0,0 km/h (0 Bft) N-NW 337 8,9 C 0,0 km/h (0 Bft)
30.06.2015 02:45 12,6 C 12,4 C 78 % 1024,6 hPa 0,0 mm 0,0 km/h (0 Bft) N-NW 337 8,9 C 0,0 km/h (0 Bft)
30.06.2015 02:50 12,4 C 12,2 C 78 % 1024,6 hPa 0,0 mm 0,0 km/h (0 Bft) NW 315 8,7 C 0,0 km/h (0 Bft)
30.06.2015 02:55 12,3 C 12,1 C 78 % 1024,2 hPa 0,0 mm 0,0 km/h (0 Bft) N-NW 337 8,6 C 0,0 km/h (0 Bft)
30.06.2015 03:00 12,2 C 12,0 C 78 % 1024,2 hPa 0,0 mm 0,0 km/h (0 Bft) N-NW 337 8,5 C 0,0 km/h (0 Bft)
30.06.2015 03:05 12,2 C 12,0 C 78 % 1024,2 hPa 0,0 mm 0,0 km/h (0 Bft) NW 315 8,5 C 0,0 km/h (0 Bft)
30.06.2015 03:10 12,1 C 11,9 C 79 % 1024,2 hPa 0,0 mm 0,0 km/h (0 Bft) N 360 8,6 C 0,0 km/h (0 Bft)
30.06.2015 03:15 12,0 C 11,8 C 79 % 1024,1 hPa 0,0 mm 0,0 km/h (0 Bft) N-NW 337 8,5 C 0,0 km/h (0 Bft)
30.06.2015 03:20 12,0 C 11,8 C 79 % 1024,1 hPa 0,0 mm 0,0 km/h (0 Bft) W-SW 247 8,5 C 0,0 km/h (0 Bft)
30.06.2015 03:25 12,1 C 11,9 C 79 % 1024,1 hPa 0,0 mm 0,0 km/h (0 Bft) NW 315 8,6 C 0,0 km/h (0 Bft)
30.06.2015 03:30 12,1 C 11,9 C 80 % 1024,1 hPa 0,0 mm 0,0 km/h (0 Bft) NW 315 8,8 C 0,0 km/h (0 Bft)
30.06.2015 03:35 12,2 C 12,0 C 80 % 1023,8 hPa 0,0 mm 0,0 km/h (0 Bft) NW 315 8,9 C 0,0 km/h (0 Bft)
30.06.2015 03:40 12,2 C 12,0 C 80 % 1023,8 hPa 0,0 mm 0,0 km/h (0 Bft) NW 315 8,9 C 0,0 km/h (0 Bft)
30.06.2015 03:45 12,1 C 11,9 C 80 % 1023,8 hPa 0,0 mm 0,0 km/h (0 Bft) NW 315 8,8 C 0,0 km/h (0 Bft)
30.06.2015 03:50 11,9 C 11,8 C 80 % 1023,8 hPa 0,0 mm 0,0 km/h (0 Bft) N-NW 337 8,6 C 0,0 km/h (0 Bft)
30.06.2015 03:55 11,7 C 11,6 C 80 % 1023,8 hPa 0,0 mm 0,0 km/h (0 Bft) N-NW 337 8,4 C 0,0 km/h (0 Bft)
30.06.2015 04:00 11,6 C 11,5 C 80 % 1023,8 hPa 0,0 mm 0,0 km/h (0 Bft) N-NW 337 8,3 C 0,0 km/h (0 Bft)
30.06.2015 04:05 11,6 C 11,5 C 80 % 1023,8 hPa 0,0 mm 0,0 km/h (0 Bft) N-NW 337 8,3 C 0,0 km/h (0 Bft)
30.06.2015 04:10 11,6 C 11,4 C 81 % 1023,8 hPa 0,0 mm 0,0 km/h (0 Bft) N-NW 337 8,5 C 0,0 km/h (0 Bft)
30.06.2015 04:15 11,7 C 11,5 C 81 % 1023,7 hPa 0,0 mm 0,0 km/h (0 Bft) N-NW 337 8,5 C 0,0 km/h (0 Bft)
30.06.2015 04:20 11,9 C 11,7 C 82 % 1023,7 hPa 0,0 mm 0,0 km/h (0 Bft) O-NO 67 8,9 C 0,0 km/h (0 Bft)
30.06.2015 04:25 11,7 C 11,5 C 82 % 1023,7 hPa 0,0 mm 0,0 km/h (0 Bft) NO 45 8,7 C 0,0 km/h (0 Bft)
30.06.2015 04:30 11,6 C 11,5 C 82 % 1023,7 hPa 0,0 mm 0,0 km/h (0 Bft) SW 225 8,6 C 0,0 km/h (0 Bft)
30.06.2015 04:35 11,5 C 11,4 C 82 % 1023,5 hPa 0,0 mm 0,0 km/h (0 Bft) N-NO 22 8,5 C 0,0 km/h (0 Bft)
30.06.2015 04:40 11,2 C 11,1 C 81 % 1023,5 hPa 0,0 mm 0,0 km/h (0 Bft) N-NO 22 8,1 C 0,0 km/h (0 Bft)
30.06.2015 04:45 11,3 C 11,1 C 82 % 1023,5 hPa 0,0 mm 0,0 km/h (0 Bft) N-NO 22 8,3 C 0,0 km/h (0 Bft)
30.06.2015 04:50 11,2 C 11,0 C 82 % 1023,5 hPa 0,0 mm 0,0 km/h (0 Bft) O-NO 67 8,2 C 0,0 km/h (0 Bft)
30.06.2015 04:55 11,1 C 10,9 C 82 % 1023,7 hPa 0,0 mm 0,0 km/h (0 Bft) N 360 8,1 C 0,0 km/h (0 Bft)
30.06.2015 05:00 11,2 C 11,0 C 83 % 1023,7 hPa 0,0 mm 0,0 km/h (0 Bft) N-NO 22 8,4 C 0,0 km/h (0 Bft)
30.06.2015 05:05 11,1 C 10,9 C 83 % 1023,7 hPa 0,0 mm 0,0 km/h (0 Bft) N-NO 22 8,3 C 0,0 km/h (0 Bft)
30.06.2015 05:10 11,1 C 10,9 C 83 % 1023,7 hPa 0,0 mm 0,0 km/h (0 Bft) N-NW 337 8,3 C 0,0 km/h (0 Bft)
30.06.2015 05:15 11,0 C 10,9 C 83 % 1023,6 hPa 0,0 mm 0,0 km/h (0 Bft) N-NW 337 8,2 C 0,0 km/h (0 Bft)
30.06.2015 05:20 11,1 C 11,0 C 83 % 1023,6 hPa 0,0 mm 0,0 km/h (0 Bft) N 360 8,3 C 0,0 km/h (0 Bft)
30.06.2015 05:25 11,2 C 11,1 C 83 % 1023,6 hPa 0,0 mm 0,0 km/h (0 Bft) O-NO 67 8,4 C 0,0 km/h (0 Bft)
30.06.2015 05:30 11,3 C 11,2 C 83 % 1023,6 hPa 0,0 mm 0,0 km/h (0 Bft) N-NW 337 8,5 C 0,0 km/h (0 Bft)
30.06.2015 05:35 11,4 C 11,3 C 83 % 1023,7 hPa 0,0 mm 0,0 km/h (0 Bft) NW 315 8,6 C 0,0 km/h (0 Bft)
30.06.2015 05:40 11,6 C 11,5 C 84 % 1023,7 hPa 0,0 mm 0,0 km/h (0 Bft) N-NO 22 9,0 C 0,0 km/h (0 Bft)
30.06.2015 05:45 11,5 C 11,4 C 83 % 1023,7 hPa 0,0 mm 0,0 km/h (0 Bft) N-NO 22 8,7 C 0,0 km/h (0 Bft)
30.06.2015 05:50 11,6 C 11,6 C 84 % 1023,7 hPa 0,0 mm 0,0 km/h (0 Bft) NO 45 9,0 C 0,0 km/h (0 Bft)
30.06.2015 05:55 11,6 C 11,7 C 83 % 1023,7 hPa 0,0 mm 0,0 km/h (0 Bft) N-NW 337 8,8 C 0,0 km/h (0 Bft)
30.06.2015 06:00 11,8 C 11,9 C 84 % 1023,7 hPa 0,0 mm 0,0 km/h (0 Bft) NO 45 9,2 C 0,0 km/h (0 Bft)
30.06.2015 06:05 11,9 C 12,0 C 83 % 1023,7 hPa 0,0 mm 0,0 km/h (0 Bft) O-NO 67 9,1 C 0,0 km/h (0 Bft)
30.06.2015 06:10 12,1 C 13,0 C 83 % 1023,7 hPa 0,0 mm 0,0 km/h (0 Bft) N-NW 337 9,3 C 0,0 km/h (0 Bft)
30.06.2015 06:15 12,5 C 13,6 C 83 % 1023,8 hPa 0,0 mm 0,0 km/h (0 Bft) NO 45 9,7 C 0,0 km/h (0 Bft)
30.06.2015 06:20 12,8 C 14,3 C 79 % 1023,8 hPa 0,0 mm 0,0 km/h (0 Bft) N-NW 337 9,2 C 0,0 km/h (0 Bft)
30.06.2015 06:25 13,0 C 14,6 C 78 % 1023,8 hPa 0,0 mm 0,0 km/h (0 Bft) NO 45 9,3 C 0,0 km/h (0 Bft)
30.06.2015 06:30 13,2 C 14,8 C 82 % 1023,8 hPa 0,0 mm 0,0 km/h (0 Bft) N-NO 22 10,2 C 0,0 km/h (0 Bft)
30.06.2015 06:35 13,3 C 15,0 C 78 % 1023,9 hPa 0,0 mm 0,0 km/h (0 Bft) N 360 9,5 C 0,0 km/h (0 Bft)
30.06.2015 06:40 13,5 C 15,7 C 78 % 1023,9 hPa 0,0 mm 0,0 km/h (0 Bft) NO 45 9,7 C 0,0 km/h (0 Bft)
30.06.2015 06:45 13,8 C 16,9 C 77 % 1023,9 hPa 0,0 mm 0,0 km/h (0 Bft) N-NW 337 9,8 C 0,0 km/h (0 Bft)
30.06.2015 06:50 14,8 C 18,9 C 77 % 1023,9 hPa 0,0 mm 0,0 km/h (0 Bft) W-NW 292 10,8 C 0,0 km/h (0 Bft)
30.06.2015 06:55 15,5 C 19,9 C 76 % 1023,8 hPa 0,0 mm 0,0 km/h (0 Bft) W-NW 292 11,3 C 2,6 km/h (1 Bft)
30.06.2015 06:59 16,1 C 21,6 C 73 % 1023,8 hPa 0,0 mm 0,0 km/h (0 Bft) N-NO 22 11,3 C 0,0 km/h (0 Bft)
30.06.2015 07:00 16,1 C 21,6 C 73 % 1023,8 hPa 0,0 mm 0,0 km/h (0 Bft) N-NO 22 11,3 C 0,0 km/h (0 Bft)
30.06.2015 07:05 16,6 C 22,7 C 72 % 1023,8 hPa 0,0 mm 0,0 km/h (0 Bft) NO 45 11,5 C 0,0 km/h (0 Bft)
30.06.2015 07:10 16,9 C 24,0 C 71 % 1023,8 hPa 0,0 mm 0,0 km/h (0 Bft) NO 45 11,6 C 0,0 km/h (0 Bft)
30.06.2015 07:15 17,5 C 24,5 C 72 % 1024,1 hPa 0,0 mm 0,0 km/h (0 Bft) NW 315 12,4 C 0,0 km/h (0 Bft)
30.06.2015 07:20 17,8 C 24,2 C 70 % 1024,1 hPa 0,0 mm 0,0 km/h (0 Bft) W 270 12,3 C 0,0 km/h (0 Bft)
30.06.2015 07:25 17,9 C 23,6 C 69 % 1024,1 hPa 0,0 mm 0,3 km/h (0 Bft) W 270 12,1 C 0,0 km/h (0 Bft)
30.06.2015 07:30 17,7 C 23,1 C 69 % 1024,1 hPa 0,0 mm 0,3 km/h (0 Bft) N-NW 337 11,9 C 0,0 km/h (0 Bft)
30.06.2015 07:35 18,0 C 23,3 C 69 % 1024,1 hPa 0,0 mm 0,3 km/h (0 Bft) N 360 12,2 C 0,0 km/h (0 Bft)
30.06.2015 07:40 18,4 C 23,4 C 69 % 1024,1 hPa 0,0 mm 0,5 km/h (0 Bft) N-NO 22 12,6 C 0,0 km/h (0 Bft)
30.06.2015 07:45 18,8 C 24,1 C 69 % 1024,1 hPa 0,0 mm 0,3 km/h (0 Bft) N-NW 337 13,0 C 0,0 km/h (0 Bft)
30.06.2015 07:50 19,2 C 24,2 C 68 % 1024,1 hPa 0,0 mm 0,0 km/h (0 Bft) W-NW 292 13,1 C 0,0 km/h (0 Bft)
30.06.2015 07:55 19,2 C 24,9 C 67 % 1023,9 hPa 0,0 mm 0,0 km/h (0 Bft) N-NO 22 12,9 C 0,0 km/h (0 Bft)
30.06.2015 08:00 19,9 C 26,8 C 67 % 1023,9 hPa 0,0 mm 0,0 km/h (0 Bft) N-NO 22 13,6 C 0,0 km/h (0 Bft)
30.06.2015 08:05 20,0 C 27,7 C 65 % 1023,9 hPa 0,0 mm 0,0 km/h (0 Bft) NW 315 13,2 C 0,0 km/h (0 Bft)
30.06.2015 08:10 20,6 C 28,6 C 66 % 1023,9 hPa 0,0 mm 0,0 km/h (0 Bft) N-NW 337 14,0 C 0,0 km/h (0 Bft)
30.06.2015 08:15 20,7 C 28,8 C 65 % 1023,8 hPa 0,0 mm 0,0 km/h (0 Bft) W-SW 247 13,9 C 0,0 km/h (0 Bft)
30.06.2015 08:20 21,1 C 29,5 C 64 % 1023,8 hPa 0,0 mm 0,0 km/h (0 Bft) N-NO 22 14,0 C 0,0 km/h (0 Bft)
30.06.2015 08:25 21,5 C 30,1 C 63 % 1023,8 hPa 0,0 mm 0,0 km/h (0 Bft) O 90 14,2 C 0,0 km/h (0 Bft)
30.06.2015 08:30 21,7 C 30,7 C 62 % 1023,8 hPa 0,0 mm 0,0 km/h (0 Bft) O 90 14,1 C 0,0 km/h (0 Bft)
30.06.2015 08:35 21,9 C 30,7 C 62 % 1023,6 hPa 0,0 mm 0,0 km/h (0 Bft) O-NO 67 14,3 C 0,0 km/h (0 Bft)
30.06.2015 08:40 22,2 C 31,3 C 61 % 1023,6 hPa 0,0 mm 0,0 km/h (0 Bft) SO 135 14,3 C 0,0 km/h (0 Bft)
30.06.2015 08:45 22,6 C 31,8 C 60 % 1023,6 hPa 0,0 mm 0,0 km/h (0 Bft) N 360 14,4 C 0,0 km/h (0 Bft)
30.06.2015 08:50 23,0 C 32,4 C 59 % 1023,6 hPa 0,0 mm 0,0 km/h (0 Bft) O-SO 112 14,5 C 0,0 km/h (0 Bft)
30.06.2015 08:55 23,1 C 32,7 C 58 % 1023,7 hPa 0,0 mm 0,0 km/h (0 Bft) O-SO 112 14,4 C 0,0 km/h (0 Bft)
30.06.2015 09:00 23,2 C 33,0 C 58 % 1023,7 hPa 0,0 mm 0,0 km/h (0 Bft) O-SO 112 14,5 C 0,0 km/h (0 Bft)
30.06.2015 09:05 23,6 C 33,1 C 59 % 1023,7 hPa 0,0 mm 0,0 km/h (0 Bft) NW 315 15,1 C 0,0 km/h (0 Bft)
30.06.2015 09:10 24,0 C 32,7 C 58 % 1023,7 hPa 0,0 mm 0,3 km/h (0 Bft) O-NO 67 15,2 C 0,0 km/h (0 Bft)
30.06.2015 09:15 23,6 C 32,3 C 56 % 1023,8 hPa 0,0 mm 0,5 km/h (0 Bft) O-NO 67 14,3 C 0,0 km/h (0 Bft)
30.06.2015 09:20 24,3 C 32,1 C 57 % 1023,8 hPa 0,0 mm 1,0 km/h (0 Bft) N-NO 22 15,2 C 3,4 km/h (1 Bft)
30.06.2015 09:25 24,4 C 31,8 C 56 % 1023,8 hPa 0,0 mm 2,8 km/h (1 Bft) NW 315 15,0 C 7,5 km/h (2 Bft)
30.06.2015 09:30 24,5 C 31,1 C 56 % 1023,8 hPa 0,0 mm 4,1 km/h (1 Bft) N 360 15,1 C 8,8 km/h (2 Bft)
30.06.2015 09:35 24,7 C 31,2 C 55 % 1024,1 hPa 0,0 mm 3,1 km/h (1 Bft) NO 45 15,0 C 0,0 km/h (0 Bft)
30.06.2015 09:40 24,9 C 31,2 C 54 % 1024,1 hPa 0,0 mm 2,3 km/h (1 Bft) O-NO 67 14,9 C 0,0 km/h (0 Bft)
30.06.2015 09:45 25,0 C 31,5 C 54 % 1024,1 hPa 0,0 mm 2,1 km/h (1 Bft) NW 315 15,0 C 2,6 km/h (1 Bft)
30.06.2015 09:50 25,1 C 31,6 C 52 % 1024,1 hPa 0,0 mm 2,8 km/h (1 Bft) N-NO 22 14,5 C 9,6 km/h (2 Bft)
30.06.2015 09:55 24,6 C 31,3 C 51 % 1024,0 hPa 0,0 mm 3,4 km/h (1 Bft) O-SO 112 13,8 C 3,4 km/h (1 Bft)
30.06.2015 10:00 24,7 C 31,8 C 52 % 1024,0 hPa 0,0 mm 1,8 km/h (1 Bft) O-SO 112 14,2 C 0,0 km/h (0 Bft)
30.06.2015 10:05 24,9 C 31,9 C 51 % 1024,0 hPa 0,0 mm 2,1 km/h (1 Bft) N-NO 22 14,1 C 6,7 km/h (2 Bft)
30.06.2015 10:10 25,0 C 31,2 C 51 % 1024,0 hPa 0,0 mm 3,6 km/h (1 Bft) N 360 14,1 C 0,0 km/h (0 Bft)
30.06.2015 10:15 25,2 C 31,4 C 49 % 1024,2 hPa 0,0 mm 4,1 km/h (1 Bft) NO 45 13,7 C 11,1 km/h (2 Bft)
30.06.2015 10:20 24,9 C 30,8 C 49 % 1024,2 hPa 0,0 mm 4,1 km/h (1 Bft) O-NO 67 13,4 C 12,4 km/h (3 Bft)
30.06.2015 10:25 25,0 C 30,8 C 48 % 1024,2 hPa 0,0 mm 4,9 km/h (1 Bft) O-NO 67 13,2 C 8,0 km/h (2 Bft)
30.06.2015 10:30 25,1 C 30,5 C 49 % 1024,2 hPa 0,0 mm 4,1 km/h (1 Bft) NO 45 13,6 C 2,6 km/h (1 Bft)
30.06.2015 10:35 25,3 C 30,8 C 49 % 1024,3 hPa 0,0 mm 4,4 km/h (1 Bft) N-NO 22 13,8 C 0,0 km/h (0 Bft)
30.06.2015 10:40 25,3 C 30,9 C 48 % 1024,3 hPa 0,0 mm 3,9 km/h (1 Bft) N-NO 22 13,5 C 7,8 km/h (2 Bft)
30.06.2015 10:45 25,0 C 30,4 C 48 % 1024,3 hPa 0,0 mm 4,7 km/h (1 Bft) N-NO 22 13,2 C 6,7 km/h (2 Bft)
30.06.2015 10:50 25,2 C 30,3 C 48 % 1024,3 hPa 0,0 mm 6,0 km/h (2 Bft) O-NO 67 13,4 C 13,2 km/h (3 Bft)
30.06.2015 10:55 24,8 C 30,0 C 48 % 1024,8 hPa 0,0 mm 5,4 km/h (1 Bft) SO 135 13,0 C 4,7 km/h (1 Bft)
30.06.2015 11:00 24,8 C 30,0 C 48 % 1024,8 hPa 0,0 mm 4,7 km/h (1 Bft) N-NO 22 13,0 C 4,4 km/h (1 Bft)
30.06.2015 11:05 25,3 C 30,3 C 47 % 1024,8 hPa 0,0 mm 3,6 km/h (1 Bft) O-SO 112 13,2 C 0,0 km/h (0 Bft)
30.06.2015 11:10 25,4 C 30,9 C 48 % 1024,8 hPa 0,0 mm 3,4 km/h (1 Bft) O-NO 67 13,6 C 8,3 km/h (2 Bft)
30.06.2015 11:15 25,4 C 30,8 C 48 % 1024,9 hPa 0,0 mm 4,7 km/h (1 Bft) NO 45 13,6 C 12,2 km/h (2 Bft)
30.06.2015 11:20 25,1 C 30,5 C 48 % 1024,9 hPa 0,0 mm 4,9 km/h (1 Bft) NO 45 13,3 C 0,0 km/h (0 Bft)
30.06.2015 11:25 24,9 C 30,4 C 48 % 1024,9 hPa 0,0 mm 4,1 km/h (1 Bft) N 360 13,1 C 8,3 km/h (2 Bft)
30.06.2015 11:30 24,8 C 28,9 C 48 % 1024,9 hPa 0,0 mm 4,1 km/h (1 Bft) O-SO 112 13,0 C 5,4 km/h (1 Bft)
30.06.2015 11:35 25,0 C 29,2 C 48 % 1025,0 hPa 0,0 mm 4,1 km/h (1 Bft) O-NO 67 13,2 C 0,0 km/h (0 Bft)
30.06.2015 11:40 25,3 C 30,3 C 48 % 1025,0 hPa 0,0 mm 3,4 km/h (1 Bft) NO 45 13,5 C 14,2 km/h (3 Bft)
30.06.2015 11:45 25,5 C 30,7 C 48 % 1025,0 hPa 0,0 mm 3,6 km/h (1 Bft) NO 45 13,7 C 9,1 km/h (2 Bft)
30.06.2015 11:50 25,3 C 31,0 C 47 % 1025,0 hPa 0,0 mm 4,4 km/h (1 Bft) N-NO 22 13,2 C 3,6 km/h (1 Bft)
30.06.2015 11:55 25,3 C 31,3 C 47 % 1025,0 hPa 0,0 mm 4,1 km/h (1 Bft) NO 45 13,2 C 7,3 km/h (2 Bft)
30.06.2015 12:00 24,5 C 29,6 C 47 % 1025,0 hPa 0,0 mm 3,1 km/h (1 Bft) SW 225 12,4 C 2,6 km/h (1 Bft)
30.06.2015 12:05 24,3 C 28,8 C 47 % 1025,0 hPa 0,0 mm 2,8 km/h (1 Bft) SW 225 12,3 C 0,0 km/h (0 Bft)
30.06.2015 12:10 24,5 C 27,7 C 49 % 1025,0 hPa 0,0 mm 2,1 km/h (1 Bft) NW 315 13,1 C 7,5 km/h (2 Bft)
30.06.2015 12:15 24,9 C 28,6 C 49 % 1025,1 hPa 0,0 mm 4,9 km/h (1 Bft) SO 135 13,4 C 9,1 km/h (2 Bft)
30.06.2015 12:20 25,5 C 29,7 C 48 % 1025,1 hPa 0,0 mm 7,5 km/h (2 Bft) O-NO 67 13,7 C 16,1 km/h (3 Bft)
30.06.2015 12:25 25,8 C 30,0 C 48 % 1025,1 hPa 0,0 mm 8,0 km/h (2 Bft) NO 45 13,9 C 11,1 km/h (2 Bft)
30.06.2015 12:30 26,1 C 30,4 C 46 % 1025,1 hPa 0,0 mm 8,3 km/h (2 Bft) NW 315 13,6 C 10,4 km/h (2 Bft)
30.06.2015 12:35 25,8 C 30,3 C 47 % 1024,9 hPa 0,0 mm 7,8 km/h (2 Bft) O-NO 67 13,6 C 2,8 km/h (1 Bft)
30.06.2015 12:40 25,8 C 30,5 C 47 % 1024,9 hPa 0,0 mm 7,3 km/h (2 Bft) NW 315 13,6 C 11,9 km/h (2 Bft)
30.06.2015 12:45 26,1 C 30,8 C 46 % 1024,9 hPa 0,0 mm 5,4 km/h (1 Bft) W 270 13,6 C 6,5 km/h (2 Bft)
30.06.2015 12:50 26,1 C 31,2 C 46 % 1024,9 hPa 0,0 mm 4,7 km/h (1 Bft) N 360 13,6 C 5,7 km/h (1 Bft)
30.06.2015 12:55 26,3 C 31,4 C 46 % 1024,9 hPa 0,0 mm 4,7 km/h (1 Bft) NW 315 13,7 C 14,0 km/h (3 Bft)
30.06.2015 12:58 26,4 C 31,0 C 46 % 1024,9 hPa 0,0 mm 6,0 km/h (2 Bft) N-NO 22 13,8 C 3,9 km/h (1 Bft)
30.06.2015 13:00 26,4 C 31,0 C 46 % 1024,9 hPa 0,0 mm 6,0 km/h (2 Bft) N-NO 22 13,8 C 3,9 km/h (1 Bft)
30.06.2015 13:05 26,4 C 30,4 C 45 % 1024,9 hPa 0,0 mm 6,5 km/h (2 Bft) W-NW 292 13,5 C 4,7 km/h (1 Bft)
30.06.2015 13:10 26,2 C 29,3 C 45 % 1024,9 hPa 0,0 mm 6,0 km/h (2 Bft) O-NO 67 13,3 C 3,1 km/h (1 Bft)
30.06.2015 13:15 26,1 C 28,8 C 45 % 1024,9 hPa 0,0 mm 6,2 km/h (2 Bft) O-SO 112 13,2 C 7,8 km/h (2 Bft)
30.06.2015 13:20 26,0 C 28,9 C 45 % 1024,9 hPa 0,0 mm 4,1 km/h (1 Bft) O-SO 112 13,1 C 5,2 km/h (1 Bft)
30.06.2015 13:25 26,1 C 29,2 C 45 % 1024,9 hPa 0,0 mm 4,9 km/h (1 Bft) N-NO 22 13,2 C 10,9 km/h (2 Bft)
30.06.2015 13:30 26,1 C 30,0 C 44 % 1024,9 hPa 0,0 mm 5,4 km/h (1 Bft) N-NO 22 12,9 C 9,8 km/h (2 Bft)
30.06.2015 13:35 26,3 C 30,4 C 44 % 1024,6 hPa 0,0 mm 4,7 km/h (1 Bft) N-NO 22 13,1 C 7,5 km/h (2 Bft)
30.06.2015 13:40 26,5 C 30,8 C 43 % 1024,6 hPa 0,0 mm 3,1 km/h (1 Bft) S 180 12,9 C 0,0 km/h (0 Bft)
30.06.2015 13:45 26,7 C 31,6 C 44 % 1024,6 hPa 0,0 mm 3,4 km/h (1 Bft) N-NW 337 13,4 C 5,4 km/h (1 Bft)
30.06.2015 13:50 27,1 C 32,0 C 43 % 1024,6 hPa 0,0 mm 2,3 km/h (1 Bft) W 270 13,4 C 3,1 km/h (1 Bft)
30.06.2015 13:55 27,3 C 32,3 C 42 % 1024,4 hPa 0,0 mm 2,8 km/h (1 Bft) W-SW 247 13,2 C 5,2 km/h (1 Bft)
30.06.2015 14:00 27,1 C 32,4 C 42 % 1024,4 hPa 0,0 mm 3,1 km/h (1 Bft) S-SO 157 13,1 C 5,2 km/h (1 Bft)
30.06.2015 14:05 27,1 C 32,3 C 44 % 1024,4 hPa 0,0 mm 2,8 km/h (1 Bft) W-NW 292 13,8 C 6,5 km/h (2 Bft)
30.06.2015 14:10 27,2 C 32,0 C 42 % 1024,4 hPa 0,0 mm 4,7 km/h (1 Bft) O-NO 67 13,2 C 18,4 km/h (3 Bft)
30.06.2015 14:15 26,7 C 31,4 C 43 % 1024,4 hPa 0,0 mm 7,0 km/h (2 Bft) N-NW 337 13,1 C 5,4 km/h (1 Bft)
30.06.2015 14:20 27,3 C 31,4 C 45 % 1024,4 hPa 0,0 mm 7,3 km/h (2 Bft) W-NW 292 14,3 C 13,2 km/h (3 Bft)
30.06.2015 14:25 26,8 C 30,2 C 43 % 1024,4 hPa 0,0 mm 6,7 km/h (2 Bft) W 270 13,2 C 9,8 km/h (2 Bft)
30.06.2015 14:30 26,7 C 29,1 C 44 % 1024,4 hPa 0,0 mm 9,6 km/h (2 Bft) NW 315 13,4 C 7,0 km/h (2 Bft)
30.06.2015 14:35 26,8 C 29,1 C 43 % 1024,1 hPa 0,0 mm 9,1 km/h (2 Bft) N-NW 337 13,2 C 11,9 km/h (2 Bft)
30.06.2015 14:40 27,0 C 29,9 C 43 % 1024,1 hPa 0,0 mm 7,3 km/h (2 Bft) N-NO 22 13,3 C 21,8 km/h (4 Bft)
30.06.2015 14:45 27,2 C 30,4 C 42 % 1024,1 hPa 0,0 mm 7,3 km/h (2 Bft) SW 225 13,2 C 9,8 km/h (2 Bft)
30.06.2015 14:50 26,8 C 30,6 C 42 % 1024,1 hPa 0,0 mm 6,0 km/h (2 Bft) N-NW 337 12,8 C 7,0 km/h (2 Bft)
30.06.2015 14:55 27,0 C 31,0 C 42 % 1024,0 hPa 0,0 mm 4,9 km/h (1 Bft) N-NO 22 13,0 C 3,6 km/h (1 Bft)
30.06.2015 15:00 27,3 C 31,2 C 42 % 1024,0 hPa 0,0 mm 5,7 km/h (1 Bft) NW 315 13,2 C 7,0 km/h (2 Bft)
30.06.2015 15:05 27,3 C 31,4 C 42 % 1024,0 hPa 0,0 mm 6,2 km/h (2 Bft) O 90 13,2 C 8,0 km/h (2 Bft)
30.06.2015 15:10 27,1 C 31,4 C 42 % 1024,0 hPa 0,0 mm 5,4 km/h (1 Bft) N 360 13,1 C 11,1 km/h (2 Bft)
30.06.2015 15:15 27,3 C 31,3 C 41 % 1023,8 hPa 0,0 mm 6,5 km/h (2 Bft) O-SO 112 12,9 C 9,8 km/h (2 Bft)
30.06.2015 15:20 27,3 C 31,2 C 42 % 1023,8 hPa 0,0 mm 8,0 km/h (2 Bft) N-NW 337 13,2 C 14,8 km/h (3 Bft)
30.06.2015 15:25 27,5 C 31,4 C 40 % 1023,8 hPa 0,0 mm 6,7 km/h (2 Bft) W-SW 247 12,7 C 11,7 km/h (2 Bft)
30.06.2015 15:30 27,5 C 31,7 C 40 % 1023,8 hPa 0,0 mm 5,2 km/h (1 Bft) SW 225 12,7 C 0,0 km/h (0 Bft)
30.06.2015 15:35 27,5 C 31,9 C 40 % 1023,7 hPa 0,0 mm 5,4 km/h (1 Bft) NW 315 12,7 C 11,9 km/h (2 Bft)
30.06.2015 15:40 27,7 C 31,9 C 41 % 1023,7 hPa 0,0 mm 6,0 km/h (2 Bft) W-NW 292 13,2 C 3,9 km/h (1 Bft)
30.06.2015 15:45 27,8 C 32,1 C 42 % 1023,7 hPa 0,0 mm 6,5 km/h (2 Bft) NW 315 13,7 C 7,8 km/h (2 Bft)
30.06.2015 15:50 27,9 C 32,2 C 40 % 1023,7 hPa 0,0 mm 6,2 km/h (2 Bft) NW 315 13,0 C 10,9 km/h (2 Bft)
30.06.2015 15:55 27,7 C 31,6 C 40 % 1023,8 hPa 0,0 mm 7,5 km/h (2 Bft) NW 315 12,9 C 7,3 km/h (2 Bft)
30.06.2015 16:00 27,5 C 31,7 C 40 % 1023,8 hPa 0,0 mm 6,2 km/h (2 Bft) N 360 12,7 C 5,4 km/h (1 Bft)
30.06.2015 16:05 27,4 C 31,9 C 40 % 1023,8 hPa 0,0 mm 4,1 km/h (1 Bft) N-NW 337 12,6 C 9,8 km/h (2 Bft)
30.06.2015 16:10 26,9 C 31,9 C 40 % 1023,8 hPa 0,0 mm 6,2 km/h (2 Bft) N-NO 22 12,1 C 11,7 km/h (2 Bft)
30.06.2015 16:15 26,7 C 31,7 C 41 % 1023,6 hPa 0,0 mm 8,0 km/h (2 Bft) NW 315 12,3 C 9,6 km/h (2 Bft)
30.06.2015 16:20 26,4 C 31,4 C 41 % 1023,6 hPa 0,0 mm 8,0 km/h (2 Bft) N-NO 22 12,1 C 12,4 km/h (3 Bft)
30.06.2015 16:25 26,3 C 31,3 C 42 % 1023,6 hPa 0,0 mm 8,5 km/h (2 Bft) N-NO 22 12,3 C 16,8 km/h (3 Bft)
30.06.2015 16:30 26,0 C 30,9 C 42 % 1023,6 hPa 0,0 mm 9,3 km/h (2 Bft) NW 315 12,1 C 9,8 km/h (2 Bft)
30.06.2015 16:35 25,9 C 30,8 C 44 % 1023,6 hPa 0,0 mm 9,3 km/h (2 Bft) NO 45 12,7 C 8,3 km/h (2 Bft)
30.06.2015 16:40 25,8 C 30,6 C 43 % 1023,6 hPa 0,0 mm 8,5 km/h (2 Bft) NW 315 12,3 C 9,3 km/h (2 Bft)
30.06.2015 16:45 25,7 C 30,4 C 43 % 1023,6 hPa 0,0 mm 10,1 km/h (2 Bft) N 360 12,2 C 13,7 km/h (3 Bft)
30.06.2015 16:50 25,7 C 30,4 C 44 % 1023,6 hPa 0,0 mm 9,1 km/h (2 Bft) NW 315 12,5 C 10,1 km/h (2 Bft)
30.06.2015 16:55 25,8 C 30,7 C 43 % 1023,6 hPa 0,0 mm 8,0 km/h (2 Bft) NW 315 12,3 C 13,5 km/h (3 Bft)
30.06.2015 17:00 25,7 C 30,6 C 43 % 1023,6 hPa 0,0 mm 8,3 km/h (2 Bft) O-NO 67 12,2 C 10,1 km/h (2 Bft)
30.06.2015 17:05 25,5 C 30,4 C 43 % 1023,6 hPa 0,0 mm 8,3 km/h (2 Bft) NO 45 12,0 C 7,0 km/h (2 Bft)
30.06.2015 17:10 25,6 C 28,8 C 45 % 1023,6 hPa 0,0 mm 8,0 km/h (2 Bft) NO 45 12,8 C 13,5 km/h (3 Bft)
30.06.2015 17:15 25,6 C 27,9 C 44 % 1023,3 hPa 0,0 mm 8,3 km/h (2 Bft) O-NO 67 12,4 C 15,0 km/h (3 Bft)
30.06.2015 17:20 25,5 C 27,0 C 44 % 1023,3 hPa 0,0 mm 9,1 km/h (2 Bft) O-NO 67 12,3 C 6,0 km/h (2 Bft)
30.06.2015 17:25 25,4 C 26,7 C 44 % 1023,3 hPa 0,0 mm 8,3 km/h (2 Bft) NW 315 12,2 C 13,7 km/h (3 Bft)
30.06.2015 17:30 25,3 C 26,4 C 43 % 1023,3 hPa 0,0 mm 6,7 km/h (2 Bft) NO 45 11,8 C 7,8 km/h (2 Bft)
30.06.2015 17:35 25,3 C 26,3 C 44 % 1023,3 hPa 0,0 mm 8,0 km/h (2 Bft) N-NO 22 12,2 C 15,8 km/h (3 Bft)
30.06.2015 17:40 25,3 C 26,1 C 43 % 1023,3 hPa 0,0 mm 8,3 km/h (2 Bft) O 90 11,8 C 11,7 km/h (2 Bft)
30.06.2015 17:45 25,1 C 26,0 C 44 % 1023,3 hPa 0,0 mm 8,5 km/h (2 Bft) NO 45 12,0 C 7,5 km/h (2 Bft)
30.06.2015 17:50 25,1 C 25,9 C 44 % 1023,3 hPa 0,0 mm 8,0 km/h (2 Bft) W 270 12,0 C 2,8 km/h (1 Bft)
30.06.2015 17:55 25,1 C 25,9 C 44 % 1023,2 hPa 0,0 mm 6,5 km/h (2 Bft) N-NW 337 12,0 C 2,8 km/h (1 Bft)
30.06.2015 18:00 25,2 C 25,9 C 44 % 1023,2 hPa 0,0 mm 5,2 km/h (1 Bft) NO 45 12,1 C 11,4 km/h (2 Bft)
30.06.2015 18:05 25,0 C 25,9 C 44 % 1023,2 hPa 0,0 mm 5,7 km/h (1 Bft) N-NO 22 11,9 C 6,2 km/h (2 Bft)
30.06.2015 18:10 25,1 C 25,8 C 44 % 1023,2 hPa 0,0 mm 6,5 km/h (2 Bft) NO 45 12,0 C 11,4 km/h (2 Bft)
30.06.2015 18:15 25,0 C 25,8 C 44 % 1023,1 hPa 0,0 mm 7,3 km/h (2 Bft) N 360 11,9 C 6,7 km/h (2 Bft)
30.06.2015 18:20 25,0 C 25,7 C 44 % 1023,1 hPa 0,0 mm 7,5 km/h (2 Bft) O-NO 67 11,9 C 10,4 km/h (2 Bft)
30.06.2015 18:25 25,1 C 25,7 C 45 % 1023,1 hPa 0,0 mm 6,2 km/h (2 Bft) N-NO 22 12,3 C 6,7 km/h (2 Bft)
30.06.2015 18:30 25,0 C 25,9 C 44 % 1023,1 hPa 0,0 mm 6,2 km/h (2 Bft) NO 45 11,9 C 7,0 km/h (2 Bft)
30.06.2015 18:35 25,0 C 27,0 C 44 % 1023,0 hPa 0,0 mm 5,2 km/h (1 Bft) NO 45 11,9 C 7,5 km/h (2 Bft)
30.06.2015 18:40 24,8 C 28,4 C 44 % 1023,0 hPa 0,0 mm 5,7 km/h (1 Bft) O-NO 67 11,7 C 9,8 km/h (2 Bft)
30.06.2015 18:45 24,7 C 29,0 C 44 % 1023,0 hPa 0,0 mm 5,2 km/h (1 Bft) NO 45 11,6 C 7,3 km/h (2 Bft)
30.06.2015 18:50 24,7 C 29,2 C 44 % 1023,0 hPa 0,0 mm 6,2 km/h (2 Bft) O-NO 67 11,6 C 6,2 km/h (2 Bft)
30.06.2015 18:55 24,7 C 29,1 C 44 % 1023,0 hPa 0,0 mm 7,5 km/h (2 Bft) O-NO 67 11,6 C 3,1 km/h (1 Bft)
30.06.2015 18:58 24,7 C 29,4 C 45 % 1023,0 hPa 0,0 mm 6,0 km/h (2 Bft) O-NO 67 12,0 C 10,9 km/h (2 Bft)
30.06.2015 19:01 24,7 C 29,4 C 45 % 1023,0 hPa 0,0 mm 6,0 km/h (2 Bft) O-NO 67 12,0 C 10,9 km/h (2 Bft)
30.06.2015 19:05 24,6 C 29,3 C 45 % 1023,0 hPa 0,0 mm 4,9 km/h (1 Bft) NO 45 11,9 C 6,5 km/h (2 Bft)
30.06.2015 19:10 24,7 C 29,3 C 44 % 1023,0 hPa 0,0 mm 6,7 km/h (2 Bft) NO 45 11,6 C 8,5 km/h (2 Bft)
30.06.2015 19:15 24,7 C 29,1 C 44 % 1022,9 hPa 0,0 mm 7,0 km/h (2 Bft) N-NO 22 11,6 C 8,8 km/h (2 Bft)
30.06.2015 19:20 24,7 C 29,0 C 43 % 1022,9 hPa 0,0 mm 6,2 km/h (2 Bft) NO 45 11,3 C 6,2 km/h (2 Bft)
30.06.2015 19:25 24,7 C 29,1 C 44 % 1022,9 hPa 0,0 mm 5,2 km/h (1 Bft) NW 315 11,6 C 6,5 km/h (2 Bft)
30.06.2015 19:30 24,8 C 29,1 C 44 % 1022,9 hPa 0,0 mm 4,9 km/h (1 Bft) N 360 11,7 C 10,1 km/h (2 Bft)
30.06.2015 19:35 24,9 C 29,2 C 44 % 1023,0 hPa 0,0 mm 4,9 km/h (1 Bft) NW 315 11,8 C 7,8 km/h (2 Bft)
30.06.2015 19:40 25,1 C 29,0 C 44 % 1023,0 hPa 0,0 mm 4,1 km/h (1 Bft) N-NW 337 12,0 C 3,4 km/h (1 Bft)
30.06.2015 19:45 25,1 C 29,0 C 43 % 1023,0 hPa 0,0 mm 4,4 km/h (1 Bft) NW 315 11,6 C 8,5 km/h (2 Bft)
30.06.2015 19:50 25,1 C 28,6 C 44 % 1023,0 hPa 0,0 mm 4,4 km/h (1 Bft) N-NW 337 12,0 C 3,6 km/h (1 Bft)
30.06.2015 19:55 25,1 C 28,7 C 44 % 1023,0 hPa 0,0 mm 3,9 km/h (1 Bft) N-NW 337 12,0 C 5,4 km/h (1 Bft)
30.06.2015 20:00 24,4 C 28,8 C 46 % 1023,0 hPa 0,0 mm 1,8 km/h (1 Bft) W 270 12,0 C 0,0 km/h (0 Bft)
30.06.2015 20:05 24,5 C 28,6 C 46 % 1023,0 hPa 0,0 mm 1,8 km/h (1 Bft) NO 45 12,1 C 0,0 km/h (0 Bft)
30.06.2015 20:10 24,0 C 28,5 C 47 % 1023,0 hPa 0,0 mm 1,0 km/h (0 Bft) O-NO 67 12,0 C 0,0 km/h (0 Bft)
30.06.2015 20:15 23,8 C 28,4 C 47 % 1023,0 hPa 0,0 mm 0,0 km/h (0 Bft) NO 45 11,8 C 0,0 km/h (0 Bft)
30.06.2015 20:20 23,5 C 28,1 C 48 % 1023,0 hPa 0,0 mm 0,8 km/h (0 Bft) N-NO 22 11,8 C 2,8 km/h (1 Bft)
30.06.2015 20:25 23,3 C 27,7 C 47 % 1023,0 hPa 0,0 mm 1,0 km/h (0 Bft) O-NO 67 11,3 C 3,9 km/h (1 Bft)
30.06.2015 20:30 23,2 C 27,0 C 47 % 1023,0 hPa 0,0 mm 1,3 km/h (1 Bft) O-NO 67 11,3 C 0,0 km/h (0 Bft)
30.06.2015 20:35 23,0 C 26,7 C 47 % 1023,2 hPa 0,0 mm 0,8 km/h (0 Bft) O-SO 112 11,1 C 0,0 km/h (0 Bft)
30.06.2015 20:40 22,6 C 26,4 C 49 % 1023,2 hPa 0,0 mm 0,0 km/h (0 Bft) SO 135 11,3 C 0,0 km/h (0 Bft)
30.06.2015 20:45 21,9 C 26,0 C 52 % 1023,2 hPa 0,0 mm 0,0 km/h (0 Bft) O-SO 112 11,6 C 0,0 km/h (0 Bft)
30.06.2015 20:50 21,6 C 25,5 C 53 % 1023,2 hPa 0,0 mm 0,0 km/h (0 Bft) SO 135 11,6 C 0,0 km/h (0 Bft)
30.06.2015 20:55 21,4 C 25,1 C 53 % 1023,2 hPa 0,0 mm 0,0 km/h (0 Bft) O-SO 112 11,4 C 0,0 km/h (0 Bft)
30.06.2015 21:00 21,3 C 24,3 C 53 % 1023,2 hPa 0,0 mm 0,0 km/h (0 Bft) S-SO 157 11,3 C 0,0 km/h (0 Bft)
30.06.2015 21:05 21,0 C 23,8 C 54 % 1023,2 hPa 0,0 mm 0,0 km/h (0 Bft) S 180 11,3 C 0,0 km/h (0 Bft)
30.06.2015 21:10 20,7 C 22,8 C 54 % 1023,2 hPa 0,0 mm 0,5 km/h (0 Bft) S-SO 157 11,1 C 4,1 km/h (1 Bft)
30.06.2015 21:15 20,6 C 22,1 C 55 % 1023,1 hPa 0,0 mm 0,8 km/h (0 Bft) S-SO 157 11,2 C 0,0 km/h (0 Bft)
30.06.2015 21:20 20,0 C 21,2 C 56 % 1023,1 hPa 0,0 mm 0,5 km/h (0 Bft) O-SO 112 11,0 C 0,0 km/h (0 Bft)
30.06.2015 21:25 19,4 C 20,4 C 57 % 1023,1 hPa 0,0 mm 0,3 km/h (0 Bft) SO 135 10,7 C 0,0 km/h (0 Bft)
30.06.2015 21:30 19,1 C 19,6 C 57 % 1023,1 hPa 0,0 mm 0,3 km/h (0 Bft) S-SO 157 10,4 C 0,0 km/h (0 Bft)
30.06.2015 21:35 18,8 C 19,3 C 58 % 1023,4 hPa 0,0 mm 0,3 km/h (0 Bft) S-SO 157 10,4 C 0,0 km/h (0 Bft)
30.06.2015 21:40 18,8 C 18,9 C 58 % 1023,4 hPa 0,0 mm 0,3 km/h (0 Bft) S-SO 157 10,4 C 0,0 km/h (0 Bft)
30.06.2015 21:45 18,6 C 18,6 C 59 % 1023,4 hPa 0,0 mm 0,3 km/h (0 Bft) S-SO 157 10,4 C 0,0 km/h (0 Bft)
30.06.2015 21:50 17,9 C 18,3 C 60 % 1023,4 hPa 0,0 mm 0,3 km/h (0 Bft) O-NO 67 10,0 C 0,0 km/h (0 Bft)
30.06.2015 21:55 17,8 C 18,0 C 61 % 1023,6 hPa 0,0 mm 0,5 km/h (0 Bft) O-SO 112 10,2 C 3,1 km/h (1 Bft)
30.06.2015 22:00 17,5 C 17,8 C 61 % 1023,6 hPa 0,0 mm 0,8 km/h (0 Bft) SO 135 9,9 C 2,6 km/h (1 Bft)
30.06.2015 22:05 17,3 C 17,6 C 63 % 1023,6 hPa 0,0 mm 0,8 km/h (0 Bft) S-SO 157 10,2 C 0,0 km/h (0 Bft)
30.06.2015 22:10 17,2 C 17,4 C 64 % 1023,6 hPa 0,0 mm 0,5 km/h (0 Bft) O-NO 67 10,3 C 0,0 km/h (0 Bft)
30.06.2015 22:15 17,2 C 17,2 C 64 % 1023,7 hPa 0,0 mm 1,0 km/h (0 Bft) SO 135 10,3 C 3,1 km/h (1 Bft)
30.06.2015 22:20 17,0 C 17,2 C 65 % 1023,7 hPa 0,0 mm 2,1 km/h (1 Bft) S-SO 157 10,4 C 3,4 km/h (1 Bft)
30.06.2015 22:25 16,8 C 17,1 C 66 % 1023,7 hPa 0,0 mm 2,6 km/h (1 Bft) S-SO 157 10,4 C 4,1 km/h (1 Bft)
30.06.2015 22:30 16,5 C 17,0 C 67 % 1023,7 hPa 0,0 mm 2,8 km/h (1 Bft) S-SO 157 10,4 C 0,0 km/h (0 Bft)
30.06.2015 22:35 16,3 C 16,9 C 68 % 1023,8 hPa 0,0 mm 2,8 km/h (1 Bft) S-SO 157 10,4 C 3,9 km/h (1 Bft)
30.06.2015 22:40 16,3 C 16,8 C 68 % 1023,8 hPa 0,0 mm 2,3 km/h (1 Bft) SO 135 10,4 C 3,1 km/h (1 Bft)
30.06.2015 22:45 16,2 C 16,7 C 68 % 1023,8 hPa 0,0 mm 1,3 km/h (1 Bft) S-SO 157 10,3 C 0,0 km/h (0 Bft)
30.06.2015 22:50 16,4 C 16,8 C 68 % 1023,8 hPa 0,0 mm 0,3 km/h (0 Bft) S-SO 157 10,5 C 0,0 km/h (0 Bft)
30.06.2015 22:55 16,5 C 16,7 C 68 % 1023,6 hPa 0,0 mm 0,0 km/h (0 Bft) S-SO 157 10,6 C 0,0 km/h (0 Bft)
30.06.2015 23:00 16,2 C 16,5 C 67 % 1023,6 hPa 0,0 mm 0,0 km/h (0 Bft) S-SO 157 10,1 C 0,0 km/h (0 Bft)
30.06.2015 23:05 16,1 C 16,3 C 67 % 1023,6 hPa 0,0 mm 0,0 km/h (0 Bft) O-NO 67 10,0 C 0,0 km/h (0 Bft)
30.06.2015 23:10 15,7 C 15,9 C 68 % 1023,6 hPa 0,0 mm 0,0 km/h (0 Bft) SO 135 9,8 C 0,0 km/h (0 Bft)
30.06.2015 23:15 15,5 C 15,6 C 68 % 1023,9 hPa 0,0 mm 0,0 km/h (0 Bft) SO 135 9,6 C 0,0 km/h (0 Bft)
30.06.2015 23:20 15,6 C 15,5 C 68 % 1023,9 hPa 0,0 mm 0,0 km/h (0 Bft) SO 135 9,7 C 0,0 km/h (0 Bft)
30.06.2015 23:25 15,5 C 15,4 C 68 % 1023,9 hPa 0,0 mm 0,0 km/h (0 Bft) SW 225 9,6 C 0,0 km/h (0 Bft)
30.06.2015 23:30 15,1 C 15,0 C 69 % 1023,9 hPa 0,0 mm 0,0 km/h (0 Bft) SO 135 9,5 C 0,0 km/h (0 Bft)
30.06.2015 23:35 15,0 C 14,9 C 69 % 1023,6 hPa 0,0 mm 0,0 km/h (0 Bft) SO 135 9,4 C 0,0 km/h (0 Bft)
30.06.2015 23:40 14,8 C 14,7 C 70 % 1023,6 hPa 0,0 mm 0,0 km/h (0 Bft) S-SO 157 9,4 C 0,0 km/h (0 Bft)
30.06.2015 23:45 14,8 C 14,7 C 71 % 1023,6 hPa 0,0 mm 0,0 km/h (0 Bft) SW 225 9,6 C 0,0 km/h (0 Bft)
30.06.2015 23:50 14,6 C 14,5 C 71 % 1023,6 hPa 0,0 mm 0,0 km/h (0 Bft) SW 225 9,4 C 0,0 km/h (0 Bft)
30.06.2015 23:55 14,5 C 14,3 C 71 % 1023,8 hPa 0,0 mm 0,0 km/h (0 Bft) SW 225 9,3 C 0,0 km/h (0 Bft)
_ Min-Zeit 05:15 05:15 16:10 19:30 - 23:55 - - 04:40 23:55
Minimum _ 11,0 C 10,9 C 40 % 1022,9 hPa - 0,0 km/h (0 Bft) - - 8,1 C 0,0 km/h (0 Bft)
_ Max-Zeit 15:50 09:05 06:00 00:10 23:55 16:45 - - 09:20 14:40
Maximum _ 27,9 C 33,1 C 84 % 1025,3 hPa 0,0 mm 10,1 km/h
N (2 Bft)
- - 15,2 C 21,8 km/h
N-NO (4 Bft)
Durchschnitt _ 20,2 C 23,1 C 59 % 1024,0 hPa #0,0 mm 2,6 km/h (1 Bft) NO - 11,5 C 3,6 km/h (1 Bft)